GW3681 Weather Reports


Display with metric or nautical units.
time (UTC)temp
F
wind
direction
speed
MPH
gust
MPH
rain 1hr
in
rain 24hr
in
rain mn
in
humidity
%
barometer
mb
20260507054103 52 348 2.0 5.0 0.00 0.00 0.00 78 1009.1
20260507053603 52 14 2.0 5.0 0.00 0.00 0.00 78 1008.8
20260507052604 52 335 1.0 5.0 0.00 0.00 0.00 77 1009.1
20260507052104 52 8 2.0 5.0 0.00 0.00 0.00 77 1008.8
20260507051604 53 21 2.0 6.0 0.00 0.00 0.00 77 1008.8
20260507051103 53 2 3.0 6.0 0.00 0.00 0.00 76 1008.8
20260507050604 53 22 3.0 6.0 0.00 0.00 0.00 76 1008.8
20260507050105 53 359 3.0 5.0 0.00 0.00 0.00 77 1008.8
20260507045603 53 2 3.0 5.0 0.00 0.00 0.00 77 1008.5
20260507045103 53 8 2.0 5.0 0.00 0.00 0.00 77 1008.8
20260507044604 53 29 2.0 3.0 0.00 0.00 0.00 77 1008.8
20260507044104 53 345 2.0 3.0 0.00 0.00 0.00 76 1008.5
20260507043604 53 352 2.0 5.0 0.00 0.00 0.00 76 1008.8
20260507043104 53 357 2.0 6.0 0.00 0.00 0.00 76 1008.5
20260507042603 53 4 3.0 6.0 0.00 0.00 0.00 77 1008.5
20260507042104 53 341 2.0 5.0 0.00 0.00 0.00 76 1008.5
20260507041604 53 2 1.0 5.0 0.00 0.00 0.00 76 1008.8
20260507041104 53 32 2.0 5.0 0.00 0.00 0.00 76 1008.5
20260507040604 53 2 1.0 2.0 0.00 0.00 0.00 76 1008.5
20260507040104 53 13 1.0 3.0 0.00 0.00 0.00 76 1008.5
20260507035604 53 14 2.0 6.0 0.00 0.00 0.00 76 1008.5
20260507035103 53 12 3.0 6.0 0.00 0.00 0.00 76 1008.5
20260507034604 53 5 2.0 7.0 0.00 0.00 0.00 76 1008.5
20260507034103 53 8 1.0 7.0 0.00 0.00 0.00 76 1008.5
20260507033603 53 348 3.0 5.0 0.00 0.00 0.00 77 1008.5
20260507033104 53 355 3.0 5.0 0.00 0.00 0.00 77 1008.1
20260507032604 53 346 2.0 3.0 0.00 0.00 0.00 77 1008.5
20260507032104 53 1 2.0 5.0 0.00 0.00 0.00 77 1008.5
20260507031605 53 12 1.0 5.0 0.00 0.00 0.00 77 1008.1
20260507030604 54 16 0.0 3.0 0.00 0.00 0.00 76 1008.1
20260507030104 54 53 1.0 2.0 0.00 0.00 0.00 76 1008.1
20260507025604 54 12 1.0 3.0 0.00 0.00 0.00 76 1008.1
20260507025104 55 2 1.0 6.0 0.00 0.00 0.00 76 1008.1
20260507024604 55 13 3.0 7.0 0.00 0.00 0.00 76 1008.1
20260507023604 55 8 1.0 6.0 0.00 0.00 0.00 75 1008.1
20260507023104 55 2 3.0 7.0 0.00 0.00 0.00 75 1008.1
20260507022603 55 14 2.0 7.0 0.00 0.00 0.00 75 1008.1
20260507022103 55 8 3.0 6.0 0.00 0.00 0.00 75 1007.8
20260507020104 55 0 3.0 6.0 0.00 0.00 0.00 75 1007.8
20260507015604 56 11 3.0 6.0 0.00 0.00 0.00 75 1008.1
20260507014604 56 0 2.0 5.0 0.00 0.00 0.00 75 1008.1
20260507014104 56 2 1.0 5.0 0.00 0.00 0.00 75 1008.5
20260507013603 56 8 2.0 5.0 0.00 0.00 0.00 75 1008.1
20260507013104 56 9 3.0 5.0 0.00 0.00 0.00 75 1008.5
20260507012604 56 4 3.0 6.0 0.00 0.00 0.00 74 1008.5
20260507012103 56 14 2.0 6.0 0.00 0.00 0.00 74 1008.5
20260507011605 57 6 3.0 5.0 0.00 0.00 0.00 74 1008.5
20260507011104 57 356 1.0 3.0 0.00 0.00 0.00 73 1008.5
20260507010603 57 7 1.0 3.0 0.00 0.00 0.00 73 1008.5
20260507010104 58 15 1.0 5.0 0.00 0.00 0.00 73 1008.8
20260507005604 58 358 1.0 5.0 0.00 0.00 0.00 72 1008.5
20260507005104 58 354 1.0 3.0 0.00 0.00 0.00 72 1008.5
20260507004603 58 337 2.0 3.0 0.00 0.00 0.00 73 1008.7
20260507004104 58 340 2.0 3.0 0.00 0.00 0.00 72 1008.6
20260507003604 58 353 2.0 3.0 0.00 0.00 0.00 72 1008.7
20260507003104 58 6 1.0 3.0 0.00 0.00 0.00 72 1008.8
20260507002104 59 343 1.0 5.0 0.00 0.00 0.00 71 1008.8
20260507001603 59 0 1.0 5.0 0.00 0.00 0.00 71 1008.9
20260507000604 59 355 1.0 6.0 0.00 0.00 0.00 71 1009.1
20260507000104 59 330 1.0 6.0 0.00 0.00 0.00 71 1008.8
20260506235603 59 358 1.0 5.0 0.00 0.00 0.00 71 1009.1
20260506234604 60 348 2.0 3.0 0.00 0.00 0.00 71 1008.8
20260506234104 60 354 2.0 3.0 0.00 0.00 0.00 70 1009.1
20260506233604 60 335 1.0 3.0 0.00 0.00 0.00 71 1008.8
20260506233104 60 349 2.0 2.0 0.00 0.00 0.00 72 1008.8
20260506232604 59 339 0.0 3.0 0.00 0.00 0.00 72 1009.1
20260506232104 59 346 1.0 3.0 0.00 0.00 0.00 73 1009.5
20260506231603 59 342 0.0 3.0 0.00 0.00 0.00 73 1009.5
20260506230603 60 1 1.0 2.0 0.00 0.00 0.00 73 1009.5
20260506225604 60 0 1.0 3.0 0.00 0.00 0.00 74 1009.5
20260506225104 60 353 1.0 5.0 0.00 0.00 0.00 74 1009.5
20260506224603 60 341 2.0 5.0 0.00 0.00 0.00 74 1009.5
20260506224104 60 351 2.0 5.0 0.00 0.00 0.00 74 1009.5
20260506223604 61 347 1.0 3.0 0.00 0.00 0.00 75 1009.5
20260506223104 61 359 2.0 3.0 0.00 0.00 0.00 75 1009.5
20260506222604 61 351 1.0 3.0 0.00 0.00 0.00 76 1009.5
20260506222104 61 352 0.0 2.0 0.00 0.00 0.00 77 1009.5
20260506221604 61 352 0.0 1.0 0.00 0.00 0.00 78 1009.5
20260506221104 61 335 0.0 1.0 0.00 0.00 0.00 80 1009.5
20260506220104 62 343 0.0 0.0 0.00 0.00 0.00 81 1009.5
20260506215604 62 339 0.0 0.0 0.00 0.00 0.00 81 1009.5
20260506214604 62 299 0.0 1.0 0.00 0.00 0.00 81 1009.5
20260506214103 62 303 0.0 2.0 0.00 0.00 0.00 80 1009.5
20260506213104 63 316 0.0 0.0 0.00 0.00 0.00 80 1009.5
20260506212604 63 339 0.0 2.0 0.00 0.00 0.00 80 1009.5
20260506211604 63 305 0.0 2.0 0.00 0.00 0.00 80 1009.5
20260506211104 63 255 0.0 2.0 0.00 0.00 0.00 79 1009.5
20260506210604 63 226 0.0 1.0 0.00 0.00 0.00 79 1009.1
20260506210104 63 207 1.0 1.0 0.00 0.00 0.00 79 1009.1
20260506205104 63 244 0.0 1.0 0.00 0.00 0.00 79 1008.8
20260506204604 63 340 0.0 1.0 0.00 0.00 0.00 79 1008.8
20260506203604 63 255 0.0 1.0 0.00 0.00 0.00 78 1008.8
20260506203104 63 303 0.0 0.0 0.00 0.00 0.00 78 1008.8
20260506202103 63 326 0.0 2.0 0.00 0.00 0.00 78 1008.5
20260506201604 63 207 0.0 2.0 0.00 0.00 0.00 78 1008.5
20260506201104 63 340 0.0 2.0 0.00 0.00 0.00 77 1008.8
20260506200105 63 267 0.0 5.0 0.00 0.00 0.00 77 1008.8
20260506195604 63 253 0.0 5.0 0.00 0.00 0.00 77 1008.5
20260506195104 63 272 0.0 1.0 0.00 0.00 0.00 77 1008.5
20260506194104 63 285 1.0 6.0 0.00 0.00 0.00 77 1008.5
20260506193603 63 241 1.0 6.0 0.00 0.00 0.00 76 1008.5
20260506192603 63 329 1.0 3.0 0.00 0.00 0.00 76 1008.5
20260506192104 63 284 2.0 3.0 0.00 0.00 0.00 76 1008.5
20260506191603 63 258 1.0 3.0 0.00 0.00 0.00 75 1008.5
20260506191104 63 300 1.0 7.0 0.00 0.00 0.00 75 1008.7
20260506190606 64 243 2.0 7.0 0.00 0.00 0.00 75 1008.6
20260506190104 64 231 2.0 5.0 0.00 0.00 0.00 74 1008.5
20260506185603 64 234 1.0 6.0 0.00 0.00 0.00 74 1008.5
20260506185103 64 241 1.0 6.0 0.00 0.00 0.00 73 1008.5
20260506184604 64 198 1.0 7.0 0.00 0.00 0.00 71 1008.5
20260506184104 65 171 3.0 9.0 0.00 0.00 0.00 70 1008.5
20260506183604 65 238 3.0 9.0 0.00 0.00 0.00 69 1008.5
20260506183104 65 259 3.0 8.0 0.00 0.00 0.00 67 1008.5
20260506182604 65 220 3.0 8.0 0.00 0.00 0.00 67 1008.5
20260506181604 65 215 3.0 10.0 0.00 0.00 0.00 67 1008.5
20260506181104 66 232 3.0 6.0 0.00 0.00 0.00 66 1008.8
20260506180604 66 135 3.0 7.0 0.00 0.00 0.00 65 1008.5
20260506180104 66 277 3.0 8.0 0.00 0.00 0.00 65 1008.8
20260506175604 66 175 4.0 8.0 0.00 0.00 0.00 64 1008.8
20260506175103 66 225 3.0 7.0 0.00 0.00 0.00 64 1008.8
20260506174604 66 248 4.0 7.0 0.00 0.00 0.00 65 1008.5
20260506174103 66 269 3.0 7.0 0.00 0.00 0.00 64 1008.5
20260506173604 67 220 3.0 6.0 0.00 0.00 0.00 64 1008.8
20260506173104 66 314 2.0 6.0 0.00 0.00 0.00 64 1008.8
20260506172604 67 232 1.0 7.0 0.00 0.00 0.00 65 1009.1
20260506172104 67 255 2.0 8.0 0.00 0.00 0.00 65 1008.8
20260506170604 67 256 2.0 8.0 0.00 0.00 0.00 64 1009.1
20260506170105 67 266 5.0 8.0 0.00 0.00 0.00 63 1009.1
20260506165604 67 259 3.0 8.0 0.00 0.00 0.00 62 1009.1
20260506165104 68 221 3.0 7.0 0.00 0.00 0.00 61 1009.5
20260506164604 68 212 2.0 9.0 0.00 0.00 0.00 62 1009.5
20260506164104 67 254 5.0 9.0 0.00 0.00 0.00 62 1008.8
20260506163604 68 225 3.0 8.0 0.00 0.00 0.00 62 1009.1
20260506162604 68 162 3.0 7.0 0.00 0.00 0.00 62 1009.1
20260506161604 68 275 2.0 8.0 0.00 0.00 0.00 60 1009.5
20260506161104 68 313 2.0 8.0 0.00 0.00 0.00 62 1009.1
20260506160604 68 262 3.0 8.0 0.00 0.00 0.00 62 1009.1
20260506160103 68 268 2.0 7.0 0.00 0.00 0.00 62 1009.5
20260506155604 69 263 2.0 7.0 0.00 0.00 0.00 62 1009.5
20260506155103 68 248 5.0 8.0 0.00 0.00 0.00 63 1009.5
20260506154604 68 72 3.0 8.0 0.00 0.00 0.00 63 1009.5
20260506154104 69 232 1.0 6.0 0.00 0.00 0.00 62 1009.5
20260506153605 68 311 2.0 10.0 0.00 0.00 0.00 63 1009.5
20260506153104 69 222 5.0 10.0 0.00 0.00 0.00 63 1009.8
20260506152604 69 178 2.0 9.0 0.00 0.00 0.00 62 1009.5
20260506152104 68 244 3.0 9.0 0.00 0.00 0.00 64 1009.5
20260506151604 69 234 2.0 9.0 0.00 0.00 0.00 64 1009.8
20260506151103 67 260 5.0 8.0 0.00 0.00 0.00 64 1009.8
20260506150603 68 289 3.0 8.0 0.00 0.00 0.00 66 1009.8
20260506150104 68 195 3.0 8.0 0.00 0.00 0.00 64 1009.8
20260506145603 69 336 2.0 7.0 0.00 0.00 0.00 65 1009.8
20260506145104 68 284 2.0 7.0 0.00 0.00 0.00 65 1010.2
20260506144604 69 166 3.0 7.0 0.00 0.00 0.00 64 1010.2
20260506143104 69 216 5.0 8.0 0.00 0.00 0.00 64 1010.2
20260506142604 69 186 3.0 8.0 0.00 0.00 0.00 64 1010.2
20260506141604 70 267 2.0 7.0 0.00 0.00 0.00 63 1010.2
20260506141104 69 264 1.0 7.0 0.00 0.00 0.00 64 1010.5
20260506140105 69 198 3.0 6.0 0.00 0.00 0.00 60 1010.5
20260506135604 69 279 2.0 6.0 0.00 0.00 0.00 61 1010.5
20260506135104 70 188 3.0 6.0 0.00 0.00 0.00 58 1010.5
20260506134603 70 258 2.0 7.0 0.00 0.00 0.00 59 1010.5
20260506134104 69 236 3.0 7.0 0.00 0.00 0.00 59 1010.8
20260506133604 69 223 2.0 6.0 0.00 0.00 0.00 60 1010.8
20260506133104 70 226 2.0 7.0 0.00 0.00 0.00 59 1010.8
20260506132604 70 253 2.0 7.0 0.00 0.00 0.00 59 1010.8
20260506132104 70 229 2.0 6.0 0.00 0.00 0.00 57 1010.8
20260506131605 70 187 1.0 5.0 0.00 0.00 0.00 57 1010.8
20260506130604 69 326 1.0 7.0 0.00 0.00 0.00 57 1011.2
20260506130105 70 217 2.0 6.0 0.00 0.00 0.00 56 1011.2
20260506125104 69 334 2.0 6.0 0.00 0.00 0.00 53 1011.2
20260506124604 69 258 2.0 7.0 0.00 0.00 0.00 54 1011.5
20260506123104 69 278 4.0 7.0 0.00 0.00 0.00 51 1011.3
20260506121606 70 217 2.0 6.0 0.00 0.00 0.00 52 1011.7
20260506121104 70 232 2.0 6.0 0.00 0.00 0.00 52 1011.9
20260506120104 70 245 2.0 5.0 0.00 0.00 0.00 53 1011.5
20260506115604 69 240 3.0 8.0 0.00 0.00 0.00 54 1011.6
20260506115104 69 217 3.0 8.0 0.00 0.00 0.00 54 1011.9
20260506114604 69 233 3.0 6.0 0.00 0.00 0.00 54 1011.9
20260506114104 68 213 2.0 8.0 0.00 0.00 0.00 57 1011.9
20260506113604 69 299 2.0 8.0 0.00 0.00 0.00 56 1011.9
20260506112605 69 239 1.0 6.0 0.00 0.00 0.00 56 1011.9
20260506112104 70 190 1.0 6.0 0.00 0.00 0.00 58 1011.9
20260506111604 69 323 1.0 5.0 0.00 0.00 0.00 56 1011.9
20260506110604 68 233 2.0 8.0 0.00 0.00 0.00 58 1011.9
20260506110104 68 296 1.0 6.0 0.00 0.00 0.00 58 1011.9
20260506105604 68 261 3.0 7.0 0.00 0.00 0.00 58 1011.9
20260506104604 68 244 1.0 5.0 0.00 0.00 0.00 60 1011.9
20260506104105 69 309 1.0 6.0 0.00 0.00 0.00 54 1011.9
20260506103604 68 254 1.0 6.0 0.00 0.00 0.00 54 1012.2
20260506103104 67 213 2.0 3.0 0.00 0.00 0.00 53 1011.9
20260506102104 67 341 1.0 5.0 0.00 0.00 0.00 53 1011.9
20260506101604 67 350 0.0 3.0 0.00 0.00 0.00 52 1012.2
20260506101104 67 328 2.0 3.0 0.00 0.00 0.00 53 1012.2
20260506100604 67 10 1.0 3.0 0.00 0.00 0.00 53 1012.2
20260506100105 66 351 0.0 3.0 0.00 0.00 0.00 53 1011.9
20260506095604 66 12 0.0 3.0 0.00 0.00 0.00 54 1012.2
20260506095104 66 323 1.0 2.0 0.00 0.00 0.00 56 1012.2
20260506094604 65 4 0.0 3.0 0.00 0.00 0.00 56 1011.9
20260506093604 65 20 0.0 3.0 0.00 0.00 0.00 57 1012.2
20260506093104 64 350 0.0 6.0 0.00 0.00 0.00 58 1011.9
20260506092104 63 355 1.0 7.0 0.00 0.00 0.00 60 1011.9
20260506091604 63 358 1.0 5.0 0.00 0.00 0.00 60 1011.9
20260506091104 63 355 3.0 5.0 0.00 0.00 0.00 60 1011.9
20260506090604 63 0 1.0 5.0 0.00 0.00 0.00 61 1012.2
20260506090104 63 297 1.0 3.0 0.00 0.00 0.00 61 1012.2
20260506085604 62 334 0.0 6.0 0.00 0.00 0.00 64 1012.2
20260506084604 61 1 3.0 6.0 0.00 0.00 0.00 64 1012.2
20260506084104 60 345 2.0 6.0 0.00 0.00 0.00 65 1012.2
20260506083104 60 335 2.0 5.0 0.00 0.00 0.00 66 1012.2
20260506082603 60 13 1.0 6.0 0.00 0.00 0.00 67 1012.2
20260506081604 58 357 3.0 7.0 0.00 0.00 0.00 69 1011.9
20260506080604 58 349 2.0 5.0 0.00 0.00 0.00 71 1012.2
20260506080104 57 346 2.0 6.0 0.00 0.00 0.00 71 1012.5
20260506073103 56 8 3.0 6.0 0.00 0.00 0.00 71 1012.5
20260506072104 56 17 3.0 7.0 0.00 0.00 0.00 71 1012.2
20260506071604 56 302 5.0 7.0 0.00 0.00 0.00 72 1012.2
20260506071104 56 352 5.0 8.0 0.00 0.00 0.00 73 1012.2
20260506070104 55 4 3.0 7.0 0.00 0.00 0.00 74 1012.5
20260506062103 52 0 2.0 6.0 0.00 0.00 0.00 77 1012.3
20260506061604 52 356 2.0 6.0 0.00 0.00 0.00 77 1012.2
20260506061104 52 3 2.0 7.0 0.00 0.00 0.00 77 1012.1